Flag for Poland Weather past 2 weeks in Warsaw, Poland

Now
36 °F

Sunny.


Feels Like: 31 °F
Forecast: 27 / 35 °F
Wind: 6 mph from South

Location: Warsaw Okecie Airport

Current Time: Feb 1, 2015 at 4:32:22 PM

Latest Report: Feb 1, 2015 at 4:00 PM


Visibility: 10 mi

Pressure: 29.27 "Hg

Humidity: 75%

Dew point: 28 °F

Location of WarsawLocation

Historic Weather in Warsaw — Graph

°F

Warsaw temperature yesterday

Maximum temperature yesterday: 37 °F (at 12:00 AM)
Minimum temperature yesterday: 30 °F (at 6:00 PM)
Average temperature yesterday: 32 °F

Past Weeks' High & Low Weather Summary

 TemperatureHumidityPressure
High41 °F (Jan 17, 3:00 PM)100% (Jan 17, 11:00 PM)30.24 "Hg (Jan 17, 11:00 PM)
Low23 °F (Jan 27, 3:30 AM)65% (Feb 1, 12:00 PM)28.77 "Hg (Jan 30, 10:00 PM)
Average33 °F93%29.79 "Hg
* Reported Jan 17 3:00 PM — Feb 1 3:30 PM, Warsaw, Weather by CustomWeather, © 2014

Note: Actual official high and low records may vary slightly from our data, if they occured in-between our weather recording intervals... More about our weather records

Advertising

Warsaw weather history for previous 24 hours

 ConditionsComfort  
Time TempWeatherWind HumidityBarometerVisibility
3:30 PM
Feb 1
37 °FSunny.5 mph70%29.24 "Hg10 mi
3:00 PM37 °FSunny.6 mph70%29.24 "Hg10 mi
2:30 PM37 °FPassing clouds.7 mph70%29.24 "HgN/A
2:00 PM39 °FSunny.7 mph65%29.24 "Hg10 mi
1:30 PM37 °FPassing clouds.8 mph70%29.24 "HgN/A
1:00 PM37 °FSunny.8 mph70%29.24 "Hg10 mi
12:30 PM37 °FSunny.9 mph70%29.24 "Hg10 mi
12:00 PM37 °FSunny.9 mph65%29.24 "Hg10 mi
11:30 AM36 °FSunny.8 mph70%29.24 "Hg10 mi
11:00 AM36 °FSunny.9 mph75%29.24 "Hg10 mi
10:30 AM36 °FPassing clouds.9 mph70%29.21 "HgN/A
10:00 AM34 °FPassing clouds.8 mph75%29.21 "HgN/A
9:30 AM34 °FSunny.8 mph75%29.21 "Hg10 mi
9:00 AM32 °FSunny.9 mph80%29.21 "Hg10 mi
8:30 AM32 °FSunny.8 mph80%29.21 "Hg10 mi
8:00 AM32 °FScattered clouds.8 mph80%29.18 "HgN/A
7:30 AM32 °FPartly sunny.9 mph87%29.18 "HgN/A
7:00 AM32 °FPassing clouds.8 mph87%29.18 "HgN/A
6:30 AM32 °FPassing clouds.10 mph87%29.15 "HgN/A
6:00 AM34 °FPassing clouds.12 mph87%29.15 "HgN/A
5:30 AM34 °FPassing clouds.10 mph87%29.15 "HgN/A
5:00 AM34 °FPassing clouds.9 mph87%29.12 "HgN/A
4:30 AM34 °FPassing clouds.9 mph87%29.12 "HgN/A
4:00 AM32 °FPassing clouds.9 mph93%29.12 "HgN/A
3:30 AM32 °FPassing clouds.7 mph93%29.09 "HgN/A
3:00 AM30 °FPassing clouds.8 mph100%29.09 "HgN/A
2:30 AM30 °FLight snow. Partly cloudy.8 mph93%29.09 "Hg5 mi
2:00 AM30 °FPassing clouds.8 mph93%29.09 "HgN/A
1:30 AM30 °FClear.7 mph93%29.09 "Hg10 mi
1:00 AM30 °FPassing clouds.8 mph86%29.09 "HgN/A
12:30 AM32 °FPassing clouds.9 mph87%29.09 "HgN/A
12:00 AM32 °FPassing clouds.9 mph87%29.09 "HgN/A
11:30 PM
Jan 31
30 °FPassing clouds.9 mph93%29.06 "HgN/A
11:00 PM30 °FPassing clouds.8 mph86%29.06 "HgN/A
10:30 PM30 °FClear.8 mph86%29.06 "Hg10 mi
10:00 PM30 °FClear.12 mph86%29.06 "Hg10 mi
9:30 PM32 °FClear.12 mph87%29.03 "Hg10 mi
9:00 PM32 °FClear.12 mph87%29.03 "Hg10 mi
8:30 PM32 °FClear.13 mph87%29.03 "Hg10 mi
8:00 PM32 °FClear.12 mph87%29.03 "Hg10 mi
7:30 PM32 °FPassing clouds.8 mph87%29.00 "HgN/A
7:00 PM32 °FPassing clouds.8 mph87%29.00 "HgN/A
6:30 PM30 °FPassing clouds.7 mph93%29.00 "HgN/A
6:00 PM30 °FPassing clouds.7 mph93%29.00 "HgN/A
5:30 PM32 °FPassing clouds.7 mph87%29.00 "HgN/A
5:00 PM32 °FPassing clouds.6 mph87%28.97 "HgN/A
4:30 PM32 °FPassing clouds.6 mph93%28.97 "HgN/A
4:00 PM32 °FPartly sunny.7 mph93%28.94 "HgN/A
Weather by CustomWeather, © 2014

See weather overviewHow to use our weather pages